Regional Weather Roundup
Issued by NWS

Home | Current Version | Previous Version | Graphics & Text | Print | Product List | Glossary On
Versions: 1 2 3 4 5 6 7 8 9 10 11 12 13 14 15 16 17 18 19 20 21 22 23 24 25 26 27 28 29 30 31 32 33 34 35 36 37 38 39 40 41 42 43 44 45 46 47 48 49 50
000
ASUS45 KTFX 220704
RWRMT
MONTANA HOURLY WEATHER ROUNDUP
NATIONAL WEATHER SERVICE GREAT FALLS MT
104 AM MDT MON SEP 22 2014

NOTE: "FAIR" INDICATES FEW OR NO CLOUDS BELOW 12000 FEET WITH NO
SIGNIFICANT WEATHER AND/OR OBSTRUCTIONS TO VISIBILITY.

* THESE STATIONS ARE NOT UNDER NWS QUALITY CONTROL. THEY DO NOT
   REPORT WEATHER SUCH AS PRECIPITATION OR FOG.

MTZ001>007-043-220800-
WEST OF THE DIVIDE
CITY           SKY/WX    TMP DP  RH WIND       PRES   REMARKS
KALISPELL      PTCLDY    46  43  89 CALM      29.94S
MISSOULA       CLEAR     59  43  56 CALM      29.97S
BUTTE          PTCLDY    52  41  66 E3        30.12S
MULLAN PASS    MOCLDY    64  37  37 W3        30.11F
* ESSEX        N/A       53  43  69 SE6        N/A
* LINCOLN      N/A       45  38  77 W1         N/A
* POLSON       N/A       60  40  48 N/A        N/A
* RONAN APT    PTCLDY    52  43  72 N/A        N/A
* SEELEY LAKE  N/A       45  36  71 N2         N/A
* THOMP F APT  MOCLDY    52  50  93 SE2G9      N/A
$$

MTZ008-052>055-220800-
SOUTHWEST MONTANA
CITY           SKY/WX    TMP DP  RH WIND       PRES   REMARKS
BOZEMAN        MOCLDY    54  46  74 VRB3      30.07F
DILLON         CLOUDY    57  41  55 S7        30.11R
W YELLOWSTONE  CLOUDY    55  46  72 SW13G21   30.24S
* THREE FORKS  MOCLDY    52  18  26 N/A        N/A
* BOULDER HILL N/A       55  37  51 S9         N/A
* MONIDA PASS  N/A       52  51  96 SE10       N/A
* RAYNOLDS PAS N/A       54  32  43 SE9        N/A
* WHITEHALL    N/A       56  43  62 NW7G14     N/A
* WISE RIVER   N/A       49  37  63 SW4        N/A
$$

MTZ009>010-012-014-046-048-049-054-220800-
EAST SLOPES AND CENTRAL MONTANA
CITY           SKY/WX    TMP DP  RH WIND       PRES   REMARKS
CUT BANK       PTCLDY    52  43  72 NE3       29.98F
GREAT FALLS    CLEAR     61  45  56 SW13      29.98F
HELENA         MOCLDY    55  45  69 CALM      30.03F
MALMSTROM AFB  PTCLDY    54  45  72 S3        30.00F
* CONRAD       PTCLDY    45  45 100 N/A        N/A
* EAST GLACIER N/A       50  42  74 NW8        N/A
* MONARCH      N/A       58  38  47 S12        N/A
* PENDROY      N/A       60  48  65 SW9        N/A
* ROGERS PASS  N/A       61  42  50 NW5        N/A
* SAINT MARY   N/A       42  38  86 S3         N/A
* SWEET GRASS  N/A       56  44  64 SW17       N/A
$$

MTZ011-013-016-021-035-040-045-047-050-051-220800-
NORTH CENTRAL MONTANA
CITY           SKY/WX    TMP DP  RH WIND       PRES   REMARKS
HAVRE          CLEAR     52  45  77 E9        29.96F
LEWISTOWN      PTCLDY    55  43  64 SE10      30.03F
* CHESTER      N/A       57  44  62 S6         N/A
* DENTON       N/A       61  43  52 S13        N/A
* GEYSER       N/A       47  43  86 SW6        N/A
* JUDITH GAP   N/A       51  43  74 SW4        N/A
* LOMA         N/A       59  45  60 NE9        N/A
$$

MTZ017>020-022>027-061-062-220800-
NORTHEAST MONTANA
CITY           SKY/WX    TMP DP  RH WIND       PRES   REMARKS
GLASGOW        CLEAR     54  36  51 E13       30.04F
JORDAN         CLEAR     54  37  53 E7        30.05F
SIDNEY         CLEAR     43  36  76 CALM      30.13F
WOLF POINT     CLEAR     46  37  71 NE6       30.08F
* BEAVER HILL  N/A       54  35  49 SE15       N/A
* CIRCLE       N/A       52  38  59 N/A        N/A
* LINDSAY DVD  N/A       50  34  54 E5         N/A
$$

MTZ028>042-056>058-220800-
SOUTHCENTRAL AND SOUTHEAST MONTANA
CITY           SKY/WX    TMP DP  RH WIND       PRES   REMARKS
BAKER          CLEAR     50  36  59 SE8       30.15F
BILLINGS       MOCLDY    57  43  60 N3        30.04F
LIVINGSTON     CLOUDY    52  45  77 NW5       30.09F
MILES CITY     PTCLDY    61  36  39 SE14      30.07F
* LAUREL APT   MOCLDY    61  41  48 N/A        N/A
* ROUNDUP APT  PTCLDY    57  43  60 N/A        N/A
* ALZADA       N/A       48  37  66 E1         N/A
* HYSHAM       N/A       65  39  39 E7         N/A
* LAME DEER    N/A       62  41  46 S17G23     N/A
* REED POINT   N/A       50  48  93 NW1        N/A
* ROSCOE HILL  N/A       59  39  48 SW2        N/A
$$

REGIONAL REPORTS...DAKOTAS
CITY           SKY/WX    TMP DP  RH WIND       PRES   REMARKS
WILLISTON      CLEAR     46  39  77 CALM      30.12F
DICKINSON      CLEAR     48  37  66 S10       30.15F
BEACH          HAZE      48  36  63 S10       30.15F VSB 3
CROSBY         CLEAR     50  41  71 S10       30.11S
TIOGA          CLEAR     43  41  93 CALM      30.16F
WATFORD CITY   FOG       41  37  86 CALM      30.11F
BISMARCK       CLEAR     45  43  93 NE5       30.20F
GRAND FORKS    CLEAR     50  48  93 S8        30.16S
FARGO          CLEAR     52  48  86 S8        30.20S
BUFFALO SD     PTCLDY    52  36  55 SE7       30.11F
RAPID CITY     MOCLDY    50  37  61 SE7       30.21F
$$

REGIONAL REPORTS...WYOMING/IDAHO/WASHINGTON
CITY           SKY/WX    TMP DP  RH WIND       PRES   REMARKS
GILLETTE       PTCLDY    59  39  48 S17       30.14F
SHERIDAN       PTCLDY    55  45  69 S8        30.07F
CODY           CLOUDY   N/A N/A N/A N/A        N/A
YELLOWSTONE LA CLOUDY    48  46  93 NW3       30.32F
SALMON         MOCLDY    61  46  58 CALM      30.02R
MULLAN PASS    MOCLDY    64  37  37 W3        30.11S
SAND POINT     PTCLDY    52  50  93 CALM      29.91S
SPOKANE        PTCLDY    63  39  41 CALM      29.90S

$$



USA.gov is the U.S. government's official web portal to all federal, state and local government web resources and services.